[[{"header":{"parameterUnit":"m.s-1","parameterCategory":1,"la1":30.2991,"la2":30.254,"lo1":-89.0895,"lo2":-89.0444,"dy":0.0017,"dx":0.0017,"nx":28,"ny":28,"refTime":"2025-02-07T03:00:00:Z","depth":0,"parameterNumber":2,"parameterNumberName":"U-component_of_WINDS"},"data":[0,0,0,0,0,0,0,0,0,0,0,0,0,0,0,0,0,0,0,0,0,0,0,0,0,0,0,0,0,0,0,0,0,0,0,0,0,0,0,0,0,0,0,0,0,0,0,0,0,0,0,0,0,0,0,0,0,0,-0.1729,-0.1729,0,-0.1719,-0.1719,-0.1718,-0.1723,-0.1723,-0.1723,-0.1723,-0.1713,-0.1712,-0.1712,0,0,0,0,0,0,0,0,0,0,0,0,0,-0.1754,-0.1753,-0.1729,-0.1729,-0.1729,-0.1719,-0.1719,-0.1718,-0.1723,-0.1723,-0.1723,-0.1723,-0.1713,-0.1712,-0.1711,0,0,0,0,0,0,0,0,0,0,0,0,0,-0.1743,-0.1753,-0.173,-0.173,-0.173,-0.1719,-0.1719,-0.1718,-0.1723,-0.1723,-0.1723,-0.1724,-0.1713,-0.1712,-0.1711,-0.1699,0,0,-0.1709,-0.1709,0,0,0,0,0,0,0,0,-0.1744,-0.1742,-0.173,-0.173,-0.173,-0.1722,-0.1723,-0.1712,-0.1722,-0.1725,-0.1723,-0.1724,-0.1716,-0.1715,-0.1712,-0.1699,-0.1698,-0.1709,-0.1708,-0.1708,-0.1708,0,0,0,0,0,0,0,-0.1744,-0.1743,-0.1725,-0.173,-0.173,-0.1731,-0.173,-0.1721,-0.1718,-0.1725,-0.1725,-0.1724,-0.1716,-0.1712,-0.1711,-0.1698,-0.1709,-0.1708,-0.1708,-0.1707,-0.1673,-0.1673,0,0,0,0,0,0,-0.1745,-0.1743,-0.1726,-0.1725,-0.1738,-0.173,-0.1729,-0.1724,-0.1719,-0.1718,-0.1724,-0.1724,-0.1714,-0.1712,-0.1711,-0.1696,-0.1708,-0.1707,-0.1707,-0.1674,-0.1673,-0.1673,0,0,0,0,0,0,-0.1746,-0.1743,-0.1726,-0.1734,-0.1732,-0.1729,-0.1724,-0.1724,-0.1721,-0.1718,-0.1717,-0.1721,-0.1714,-0.1712,-0.1702,-0.1695,-0.1707,-0.1706,-0.1674,-0.1674,-0.1673,-0.1665,0,0,0,0,0,0,-0.1746,-0.1744,-0.1739,-0.1734,-0.1731,-0.1717,-0.1724,-0.1724,-0.172,-0.172,-0.1715,-0.1714,-0.1714,-0.1703,-0.1701,-0.1695,-0.1706,-0.1675,-0.1674,-0.1673,-0.1666,-0.1664,-0.1663,0,0,0,0,0,-0.1747,-0.1738,-0.1739,-0.1737,-0.1726,-0.1717,-0.1715,-0.1715,-0.1719,-0.1714,-0.1712,-0.1715,-0.1696,-0.1702,-0.17,-0.1693,-0.1675,-0.1674,-0.1673,-0.1667,-0.1665,-0.1663,0,0,0,0,0,0,-0.1742,-0.1737,-0.1738,-0.1727,-0.1722,-0.1717,-0.1711,-0.1713,-0.1707,-0.1708,-0.1708,-0.1707,-0.1696,-0.1693,-0.1699,-0.168,-0.1686,-0.1685,-0.1682,-0.168,-0.1679,-0.1679,-0.1705,0,0,0,0,0,-0.174,-0.1733,-0.1729,-0.1719,-0.1716,-0.1714,-0.171,-0.171,-0.1706,-0.1704,-0.1701,-0.1696,-0.1689,-0.1685,-0.1678,-0.1666,-0.1664,-0.166,-0.1658,-0.1657,-0.1656,-0.1648,-0.1646,-0.1669,-0.1669,-0.1669,0,0,-0.1735,-0.1731,-0.1727,-0.1718,-0.1714,-0.1707,-0.1713,-0.1705,-0.1699,-0.1702,-0.1692,-0.169,-0.1684,-0.1673,-0.1668,-0.1671,-0.1649,-0.1656,-0.1655,-0.1654,-0.1647,-0.1645,-0.1643,-0.1669,-0.1669,-0.1669,0,0,-0.1722,-0.1718,-0.171,-0.1706,-0.17,-0.1698,-0.1696,-0.1691,-0.1689,-0.1679,-0.1681,-0.1675,-0.1663,-0.1659,-0.1655,-0.164,-0.1642,-0.1638,-0.163,-0.1623,-0.1621,-0.1619,-0.1613,-0.1611,-0.1637,-0.1636,-0.1636,0,-0.1716,-0.1705,-0.1705,-0.1696,-0.1692,-0.1695,-0.1685,-0.1682,-0.1674,-0.1671,-0.1675,-0.166,-0.1656,-0.1643,-0.1639,-0.1637,-0.1634,-0.1638,-0.1621,-0.1619,-0.1618,-0.1612,-0.161,-0.1636,-0.1636,-0.1636,-0.1636,0,-0.1699,-0.1691,-0.1684,-0.1676,-0.1672,-0.1663,-0.1661,-0.1656,-0.1656,-0.1654,-0.1644,-0.1639,-0.1632,-0.1629,-0.1629,-0.1616,-0.1618,-0.1621,-0.1627,-0.1615,-0.161,-0.1608,-0.1635,-0.1635,-0.1636,-0.1636,0,0,-0.1683,-0.1674,-0.1672,-0.1668,-0.1661,-0.1655,-0.1646,-0.1639,-0.1634,-0.1629,-0.1621,-0.1611,-0.1614,-0.161,-0.161,-0.1603,-0.1591,-0.1607,-0.1607,-0.1604,-0.1575,-0.1572,-0.157,-0.1592,-0.1592,-0.1591,-0.1575,0,-0.1669,-0.1653,-0.1652,-0.1638,-0.163,-0.1632,-0.1624,-0.1619,-0.1617,-0.161,-0.1608,-0.16,-0.1605,-0.1602,-0.1596,-0.1593,-0.1585,-0.1595,-0.1585,-0.1584,-0.1586,-0.1567,-0.1564,-0.1549,-0.1573,-0.1573,-0.1572,0,-0.1651,-0.1644,-0.1629,-0.1623,-0.162,-0.1613,-0.1605,-0.1599,-0.1593,-0.1592,-0.1587,-0.1587,-0.1578,-0.1584,-0.1571,-0.1578,-0.1574,-0.1572,-0.1571,-0.157,-0.1578,-0.1565,-0.1545,-0.1542,-0.1569,-0.157,-0.157,0,-0.164,-0.1628,-0.1617,-0.1613,-0.1606,-0.1601,-0.1598,-0.1592,-0.1587,-0.1581,-0.1577,-0.157,-0.1566,-0.156,-0.1559,-0.1564,-0.1545,-0.1552,-0.1544,-0.1544,-0.154,-0.154,-0.1518,-0.1538,-0.1538,-0.1538,-0.1538,0,-0.1625,-0.1616,-0.1612,-0.1605,-0.1594,-0.1593,-0.1583,-0.158,-0.1574,-0.1567,-0.1568,-0.1561,-0.156,-0.1552,-0.1551,-0.154,-0.1539,-0.1537,-0.1537,-0.1537,-0.1537,-0.1534,-0.1535,-0.1537,-0.1537,-0.1538,-0.1538,0,-0.1612,-0.1609,-0.1597,-0.159,-0.1588,-0.1581,-0.1575,-0.1568,-0.1566,-0.1557,-0.1554,-0.1551,-0.1542,-0.154,-0.153,-0.1529,-0.1516,-0.1517,-0.1518,-0.1518,-0.151,-0.151,-0.1485,-0.1482,-0.1504,-0.1503,-0.1503,0,-0.1602,-0.1595,-0.1587,-0.1582,-0.1578,-0.157,-0.1565,-0.1563,-0.1558,-0.155,-0.1544,-0.1535,-0.1528,-0.1515,-0.1511,-0.1503,-0.1504,-0.1495,-0.1503,-0.1503,-0.1503,-0.1503,-0.1503,-0.1494,-0.1494,-0.1494,-0.1493,0,-0.1585,-0.1583,-0.1576,-0.1567,-0.1561,-0.1555,-0.1548,-0.1544,-0.1541,-0.1535,-0.1526,-0.1521,-0.151,-0.1501,-0.1493,-0.149,-0.1491,-0.1491,-0.1489,-0.1489,-0.1489,-0.1488,-0.1514,-0.1492,-0.1492,-0.1492,-0.1492,-0.1492,-0.1573,-0.1566,-0.1559,-0.155,-0.1545,-0.1539,-0.1532,-0.1529,-0.1521,-0.1512,-0.1511,-0.1501,-0.1495,-0.1484,-0.148,-0.1472,-0.1475,-0.1472,-0.1471,-0.147,-0.1469,-0.1491,-0.1471,-0.1471,-0.1471,-0.1471,-0.1471,0,-0.1556,-0.1551,-0.1543,-0.1534,-0.1527,-0.1528,-0.1521,-0.1515,-0.1506,-0.15,-0.1492,-0.1482,-0.1473,-0.1469,-0.146,-0.1454,-0.1455,-0.1452,-0.1453,-0.1452,-0.1467,-0.147,-0.1452,-0.1452,-0.1452,-0.1452,-0.1452,-0.1452,-0.1546,-0.1534,-0.1532,-0.1517,-0.1513,-0.1503,-0.1498,-0.1493,-0.1488,-0.1475,-0.1468,-0.1465,-0.1459,-0.145,-0.1442,-0.1441,-0.1438,-0.1435,-0.1434,-0.1449,-0.1451,-0.1452,-0.1455,-0.1434,-0.1434,-0.1419,-0.1419,-0.1418]},{"header":{"parameterUnit":"m.s-1","parameterCategory":1,"la1":30.2991,"la2":30.254,"lo1":-89.0895,"lo2":-89.0444,"dy":0.0017,"dx":0.0017,"nx":28,"ny":28,"refTime":"2025-02-07T03:00:00:Z","depth":0,"parameterNumber":3,"parameterNumberName":"V-component_of_WINDS"},"data":[0,0,0,0,0,0,0,0,0,0,0,0,0,0,0,0,0,0,0,0,0,0,0,0,0,0,0,0,0,0,0,0,0,0,0,0,0,0,0,0,0,0,0,0,0,0,0,0,0,0,0,0,0,0,0,0,0,0,3.0139,3.014,0,3.0304,3.0306,3.0308,3.0348,3.0347,3.0346,3.0345,3.0516,3.0522,3.0527,0,0,0,0,0,0,0,0,0,0,0,0,0,2.9858,2.9863,3.0138,3.014,3.0143,3.0304,3.0306,3.0309,3.0348,3.0347,3.0346,3.0344,3.0515,3.0521,3.0528,0,0,0,0,0,0,0,0,0,0,0,0,0,2.9997,2.9864,3.0138,3.0182,3.0187,3.0304,3.0306,3.0309,3.0349,3.0347,3.0345,3.0344,3.0512,3.0521,3.0529,3.0614,0,0,3.0555,3.0558,0,0,0,0,0,0,0,0,2.9989,3.0007,3.0173,3.0179,3.0185,3.0304,3.027,3.0412,3.0349,3.0287,3.0345,3.0343,3.0447,3.0461,3.0496,3.0622,3.063,3.0555,3.056,3.0564,3.0566,0,0,0,0,0,0,0,2.998,3.0001,3.0204,3.0176,3.0183,3.0194,3.0212,3.0297,3.0375,3.0293,3.0296,3.0315,3.045,3.0487,3.05,3.0632,3.0555,3.0563,3.0568,3.0571,3.0838,3.084,0,0,0,0,0,0,2.9962,2.9992,3.0199,3.0209,3.0081,3.02,3.022,3.0267,3.0374,3.0388,3.0316,3.0316,3.0474,3.049,3.0506,3.0615,3.0564,3.0572,3.0577,3.0836,3.0839,3.0841,0,0,0,0,0,0,2.9956,2.998,3.0192,3.0102,3.0129,3.0207,3.0259,3.0272,3.0309,3.0392,3.0406,3.034,3.0473,3.0494,3.0587,3.0621,3.0576,3.0583,3.0834,3.0837,3.084,3.0831,0,0,0,0,0,0,2.9948,2.9978,3.001,3.0102,3.0134,3.027,3.0262,3.0276,3.0323,3.0325,3.0418,3.0432,3.0474,3.0574,3.0596,3.0632,3.059,3.0831,3.0835,3.0839,3.0829,3.0834,3.0838,0,0,0,0,0,2.9937,3.0001,3.0012,3.0037,3.0177,3.0272,3.029,3.0337,3.0326,3.036,3.0413,3.0429,3.0613,3.0584,3.0608,3.0647,3.0829,3.0834,3.0839,3.0827,3.0833,3.0838,0,0,0,0,0,0,2.9913,3.0014,3.0027,3.0122,3.0188,3.0278,3.0323,3.0341,3.0412,3.0411,3.0466,3.0486,3.0576,3.0621,3.0586,3.0736,3.0721,3.0731,3.0704,3.071,3.0715,3.0703,3.0597,0,0,0,0,0,2.9918,2.9986,3.0071,3.0147,3.018,3.0245,3.0288,3.0319,3.0389,3.0417,3.0477,3.0546,3.0619,3.0667,3.0739,3.0834,3.0856,3.0873,3.0878,3.0881,3.089,3.0945,3.0954,3.0856,3.0856,3.0856,0,0,2.993,2.9994,3.0034,3.0144,3.0199,3.0269,3.0269,3.0343,3.0396,3.0429,3.0521,3.0567,3.0647,3.0742,3.0787,3.0782,3.0921,3.0887,3.0889,3.0896,3.0951,3.096,3.0968,3.0859,3.0859,3.0858,0,0,2.9989,3.0043,3.0114,3.0168,3.025,3.0294,3.031,3.0398,3.043,3.0522,3.0549,3.0613,3.0738,3.0794,3.0839,3.0919,3.0937,3.0941,3.0965,3.1018,3.1026,3.1033,3.1064,3.1074,3.0948,3.0948,3.0948,0,2.9995,3.0101,3.0148,3.0221,3.0269,3.0301,3.0373,3.0424,3.0526,3.0559,3.0551,3.0709,3.0765,3.0875,3.0894,3.0929,3.0951,3.0932,3.1021,3.1029,3.1036,3.1066,3.1077,3.0949,3.0949,3.0949,3.0949,0,3.0105,3.0178,3.0225,3.0322,3.0375,3.0447,3.0506,3.0554,3.0579,3.0623,3.0717,3.0785,3.0873,3.09,3.0925,3.1014,3.1008,3.101,3.0997,3.1045,3.1074,3.1086,3.0949,3.0949,3.0949,3.0949,0,0,3.0155,3.0276,3.0293,3.0338,3.0431,3.0489,3.0562,3.0647,3.0688,3.0757,3.0821,3.0926,3.0929,3.098,3.1011,3.1058,3.1119,3.1054,3.1057,3.1066,3.1223,3.1223,3.1235,3.113,3.1132,3.1134,3.1217,0,3.0227,3.036,3.0404,3.0515,3.0584,3.0615,3.0679,3.0744,3.0786,3.0852,3.0899,3.0974,3.097,3.1001,3.1048,3.1101,3.1152,3.1096,3.1193,3.1195,3.1174,3.125,3.125,3.1325,3.1228,3.123,3.1232,0,3.033,3.0401,3.0518,3.0603,3.0634,3.0691,3.0772,3.0834,3.0907,3.0935,3.0992,3.102,3.1099,3.1079,3.119,3.1151,3.1192,3.1224,3.1228,3.1242,3.1218,3.1268,3.135,3.1362,3.125,3.1248,3.1247,0,3.0358,3.0482,3.0569,3.0606,3.0706,3.0746,3.0789,3.0861,3.0909,3.098,3.1013,3.1092,3.1136,3.1197,3.1246,3.1226,3.1353,3.1337,3.138,3.1379,3.1408,3.1406,3.1501,3.143,3.143,3.1429,3.1429,0,3.0436,3.0508,3.0583,3.0637,3.0718,3.0767,3.0846,3.0891,3.0955,3.1019,3.1049,3.1108,3.1168,3.1235,3.1273,3.1361,3.138,3.1406,3.1416,3.1405,3.1402,3.1435,3.1432,3.1433,3.1432,3.1431,3.1431,0,3.0483,3.0535,3.0633,3.0719,3.0742,3.0799,3.0873,3.0927,3.097,3.105,3.1072,3.1141,3.1221,3.1275,3.1378,3.1404,3.15,3.1507,3.1475,3.1481,3.1522,3.1519,3.1644,3.1664,3.1577,3.1577,3.1578,0,3.0531,3.0586,3.0678,3.0723,3.0767,3.0838,3.0888,3.0938,3.0988,3.1076,3.1119,3.1202,3.1271,3.1399,3.1458,3.1538,3.1549,3.1587,3.1561,3.1549,3.1553,3.155,3.1557,3.1592,3.1593,3.1594,3.1594,0,3.0611,3.0634,3.0704,3.0783,3.0841,3.0906,3.0971,3.1005,3.1067,3.1122,3.1205,3.1258,3.1363,3.1446,3.153,3.1576,3.1597,3.1601,3.1616,3.1607,3.1587,3.1601,3.149,3.1599,3.1598,3.1598,3.1598,3.1598,3.0662,3.0713,3.0786,3.0863,3.0917,3.0977,3.1032,3.1082,3.1151,3.1241,3.1266,3.1353,3.1425,3.1541,3.1588,3.1657,3.1654,3.1674,3.168,3.1685,3.1687,3.1573,3.1672,3.1672,3.1672,3.1672,3.1672,0,3.0746,3.0794,3.0864,3.0954,3.1014,3.1026,3.1098,3.1149,3.1225,3.129,3.1357,3.1453,3.1532,3.1597,3.168,3.1723,3.1734,3.1743,3.1742,3.1753,3.1684,3.1664,3.1733,3.1733,3.1733,3.1733,3.1733,3.1733,3.0797,3.0885,3.0917,3.1032,3.108,3.1165,3.1206,3.1262,3.1314,3.142,3.1486,3.1527,3.1593,3.1681,3.1755,3.1772,3.1802,3.1809,3.1829,3.1764,3.1757,3.1751,3.1733,3.1815,3.1815,3.1893,3.1893,3.1894]}]]